Weather History for Melbourne, FL

Change the Weather History Date:

Wednesday, November 6, 2013

  Actual Average Record
Temperature  
Mean Temperature 78 °F 71 °F  
Max Temperature 84 °F 80 °F 88 °F (1958)
Min Temperature 71 °F 62 °F 42 °F (1970)
Degree Days  
Heating Degree Days 0 1  
Month to date heating degree days 0 4  
Since 1 July heating degree days 0 8  
Cooling Degree Days 13 7  
Month to date cooling degree days 67 43  
Year to date cooling degree days 3395 3080  
Growing Degree Days 27 (Base 50)    
Moisture  
Dew Point 65 °F    
Average Humidity 68    
Maximum Humidity 84    
Minimum Humidity 51    
Precipitation  
Precipitation T in 0.11 in 1.67 in (1996)
Month to date precipitation 0.10 0.70  
Year to date precipitation 36.09 47.25  
Sea Level Pressure  
Sea Level Pressure 30.07 in    
Wind  
Wind Speed 8 mph (ENE)    
Max Wind Speed 15 mph    
Max Gust Speed 18 mph    
Visibility 10 miles    
Events      
T = Trace of Precipitation, MM = Missing Value Source: NWS Daily Summary

Daily Weather History Graph

Daily Weather History Graph

Search for Another Location

Airport:

Trip Planner

Search our weather history database for the weather conditions in past years. The results will help you decide how hot, cold, wet, or windy it might be!

Date:

Astronomy

Nov. 06, 2013 Rise Set
Actual Time 6:37 AM EST 5:34 PM EST
Civil Twilight 6:13 AM EST 5:58 PM EST
Nautical Twilight 5:45 AM EST 6:26 PM EST
Astronomical Twilight 5:17 AM EST 6:54 PM EST
Moon 9:44 AM EST (11/6) 8:43 PM EST (11/6)
Length of Visible Light 11h 45m
Length of Day
10h 56m
Waxing Crescent, 13% of the Moon is Illuminated
Nov 6
Waxing Crescent
Nov 10
First Quarter
Nov 17
Full
Nov 25
Last Quarter
Dec 2
New

Hourly Weather History & Observations

Time (EST) Temp. Heat Index Dew Point Humidity Pressure Visibility Wind Dir Wind Speed Gust Speed Precip Events Conditions
12:53 AM 77.0 °F - 64.0 °F 64% 30.10 in 10.0 mi East 15.0 mph - N/A   Overcast
1:53 AM 75.9 °F - 64.0 °F 67% 30.09 in 10.0 mi East 12.7 mph - N/A   Partly Cloudy
2:53 AM 75.9 °F - 64.9 °F 69% 30.07 in 10.0 mi East 10.4 mph - N/A   Clear
3:53 AM 75.0 °F - 64.0 °F 69% 30.06 in 10.0 mi East 9.2 mph - N/A   Partly Cloudy
4:53 AM 75.9 °F - 63.0 °F 64% 30.06 in 10.0 mi East 10.4 mph - N/A   Clear
5:53 AM 75.0 °F - 63.0 °F 66% 30.07 in 10.0 mi East 9.2 mph - N/A   Clear
6:53 AM 75.0 °F - 63.0 °F 66% 30.09 in 10.0 mi East 8.1 mph - N/A   Clear
7:53 AM 78.1 °F - 63.0 °F 60% 30.11 in 10.0 mi East 5.8 mph - N/A   Clear
8:53 AM 80.1 °F 81.5 °F 63.0 °F 56% 30.11 in 10.0 mi East 9.2 mph - N/A   Partly Cloudy
9:53 AM 82.0 °F 83.0 °F 62.1 °F 51% 30.11 in 10.0 mi East 10.4 mph - N/A   Scattered Clouds
10:53 AM 82.9 °F 84.0 °F 63.0 °F 51% 30.10 in 10.0 mi East 11.5 mph - N/A   Scattered Clouds
11:53 AM 82.9 °F 84.6 °F 64.9 °F 54% 30.09 in 10.0 mi East 9.2 mph - N/A   Partly Cloudy
12:53 PM 82.9 °F 85.0 °F 66.0 °F 56% 30.06 in 10.0 mi East 9.2 mph - N/A   Scattered Clouds
1:53 PM 82.0 °F 83.8 °F 64.9 °F 56% 30.05 in 10.0 mi ESE 6.9 mph - N/A   Scattered Clouds
2:53 PM 81.0 °F 82.5 °F 64.0 °F 56% 30.04 in 10.0 mi East 9.2 mph - N/A   Mostly Cloudy
3:53 PM 75.9 °F - 68.0 °F 76% 30.05 in 10.0 mi NNE 10.4 mph - N/A   Mostly Cloudy
4:53 PM 75.0 °F - 68.0 °F 79% 30.04 in 10.0 mi NE 10.4 mph - N/A   Mostly Cloudy
5:53 PM 75.0 °F - 66.9 °F 76% 30.05 in 10.0 mi NE 4.6 mph - N/A   Overcast
6:53 PM 75.0 °F - 66.9 °F 76% 30.06 in 10.0 mi NNE 3.5 mph - N/A   Overcast
7:53 PM 72.0 °F - 66.0 °F 81% 30.06 in 10.0 mi NNE 3.5 mph - N/A   Clear
8:53 PM 73.0 °F - 68.0 °F 84% 30.06 in 10.0 mi North 6.9 mph - N/A   Overcast
9:53 PM 73.0 °F - 68.0 °F 84% 30.07 in 10.0 mi North 5.8 mph - N/A   Overcast
10:53 PM 73.0 °F - 68.0 °F 84% 30.07 in 10.0 mi North 3.5 mph - N/A   Overcast
11:53 PM 73.0 °F - 70.0 °F 90% 30.05 in 10.0 mi North 3.5 mph - 0.00 in   Overcast